Theta_e
355 355 355 355 353 352 352 350 348 347 348 346 346 348 346 351 363 370 372 363 350 348 350 346 346 349 348 348 350 350 351 350 349 349 349 348 347 350 352 350 346 344 345 347 349 350 350 349 348 346 344 343 343 342 340 337 334 331 328 329 333 337 340 342 344 345 345 345 345 346 346 348 349 349
357 356 356 355 353 353 352 350 348 348 349 347 347 349 348 348 353 357 364 365 352 348 354 349 347 351 350 349 350 351 351 351 350 348 348 348 346 346 350 352 348 345 346 348 349 351 351 349 348 345 344 344 344 342 340 338 336 332 328 327 332 337 339 340 340 339 338 337 337 337 338 340 341 342
358 357 356 356 354 354 353 351 350 350 350 350 348 349 348 348 350 348 352 359 355 350 353 351 350 353 351 350 352 350 350 352 352 350 349 348 347 346 351 353 350 346 347 349 350 352 351 349 348 346 344 344 344 342 341 340 337 331 327 328 332 336 337 336 335 334 334 335 336 335 335 336 336 336
357 357 358 358 356 355 355 352 351 350 350 350 349 349 348 348 351 349 348 352 353 350 351 353 354 354 351 351 352 352 353 353 352 351 351 350 348 349 351 353 351 347 348 350 351 352 351 349 348 346 345 345 343 341 340 339 334 327 324 328 332 334 335 334 333 333 334 337 337 337 336 336 336 336
357 357 358 359 358 357 356 354 353 351 351 351 349 349 349 348 349 350 349 348 350 351 352 355 355 353 352 353 352 353 354 352 350 351 353 352 352 352 351 351 349 348 349 351 351 352 351 349 348 346 345 345 342 338 335 332 331 325 321 327 333 333 334 334 334 335 335 336 336 335 334 334 333 333
359 360 359 359 359 358 356 354 353 353 352 351 349 348 349 348 348 349 350 350 350 352 355 357 357 354 353 354 352 353 353 350 350 352 355 354 353 354 352 350 350 349 350 351 351 353 351 349 348 346 345 344 340 336 331 327 329 325 318 324 331 332 333 334 333 334 334 333 333 331 330 329 328 327
360 360 359 357 356 356 356 354 354 354 352 351 351 350 348 348 349 349 352 352 352 354 356 358 358 356 355 355 353 352 352 350 349 351 356 356 353 354 354 353 353 352 352 351 352 352 351 349 349 346 345 344 339 335 330 326 329 326 316 320 328 330 330 330 329 329 328 327 325 323 322 320 319 319
357 357 356 355 354 354 355 355 353 353 352 351 351 351 350 350 350 351 352 352 353 356 358 357 358 359 358 357 355 354 352 350 349 350 355 357 356 355 355 355 355 355 354 352 352 352 351 350 348 346 345 343 338 336 331 326 330 325 312 315 323 325 325 324 322 321 319 318 316 314 313 312 311 312
355 355 353 353 353 353 353 353 352 351 350 349 349 349 349 350 352 353 354 353 354 357 358 356 357 359 359 358 357 355 352 350 350 351 354 357 358 358 357 355 355 356 355 353 352 352 351 349 348 347 345 343 339 336 331 327 326 318 307 310 317 319 320 319 316 315 313 311 309 308 308 308 309 309
353 353 352 352 352 353 353 352 352 351 350 349 348 349 349 350 354 356 355 354 355 356 356 355 356 357 357 356 355 356 353 349 349 350 351 354 357 359 357 355 355 355 354 353 352 351 351 350 348 347 346 344 340 336 332 326 319 310 305 307 311 314 315 315 312 311 309 307 306 306 306 307 308 308
353 354 354 354 353 353 353 353 353 352 351 350 349 349 349 349 353 355 355 355 355 354 355 356 355 355 354 353 354 354 353 349 348 349 349 352 355 357 356 355 354 354 353 353 352 351 351 350 348 347 346 344 341 337 333 325 315 310 308 306 307 310 311 311 310 308 307 306 305 305 305 306 307 308
354 354 354 354 353 353 353 353 353 352 351 350 349 349 349 350 352 355 355 355 353 352 353 354 355 354 353 353 354 354 354 351 348 348 349 351 351 352 352 352 353 353 353 353 352 352 352 350 348 347 346 346 342 339 334 326 318 315 313 307 306 307 307 307 307 306 306 305 305 305 305 305 306 308
354 353 353 353 353 354 354 353 353 351 350 350 350 349 350 351 353 355 355 354 352 351 352 352 353 353 354 354 354 354 353 351 349 349 350 350 349 349 350 350 351 352 353 354 353 353 352 351 350 348 346 346 344 340 336 330 324 321 318 312 307 307 308 308 307 305 305 305 304 305 305 305 305 306
356 355 354 353 352 353 354 354 354 353 351 352 352 351 351 351 351 352 353 354 352 351 351 352 352 353 353 355 355 355 353 353 353 352 351 351 350 349 350 350 351 353 353 353 353 352 351 350 349 348 347 346 345 341 337 333 330 326 322 316 312 312 313 313 310 307 306 306 305 304 304 305 305 304
357 356 354 353 352 352 354 356 356 356 354 354 355 354 354 354 352 352 353 355 353 351 352 353 352 352 352 354 356 355 354 354 354 352 352 352 352 351 351 350 351 353 351 348 348 349 348 348 348 348 347 346 345 343 338 334 332 329 324 320 318 318 319 317 314 312 311 310 308 306 306 307 306 305
357 355 354 354 354 353 353 353 353 355 356 357 356 356 356 357 356 355 354 354 354 353 353 353 352 352 353 355 355 354 353 353 353 352 351 351 351 351 350 349 350 351 349 345 343 342 341 341 343 343 343 345 345 343 338 334 333 330 325 322 321 321 321 320 318 317 316 316 313 311 311 311 309 307
355 355 355 355 354 353 352 351 351 353 355 357 357 357 357 357 357 357 356 356 355 355 355 354 352 352 353 355 354 352 351 350 350 351 349 348 349 346 343 346 348 348 347 342 338 336 333 333 335 336 337 340 342 341 338 335 333 331 327 324 323 323 323 322 321 319 319 319 318 317 317 316 313 310
355 355 355 354 354 353 351 351 353 354 355 356 357 357 357 357 356 356 356 356 355 354 354 353 353 353 353 353 352 350 349 348 348 348 346 345 343 339 339 342 342 340 339 336 334 334 331 330 333 335 336 339 341 340 339 336 333 331 328 325 324 324 324 323 322 320 319 320 320 320 319 319 317 314
355 354 354 353 353 353 352 351 352 353 355 356 357 357 356 356 355 353 354 353 351 350 352 353 354 352 350 349 348 347 347 346 346 345 344 340 335 334 338 338 334 331 330 329 330 330 327 327 331 333 334 335 337 337 338 335 331 330 329 327 325 325 324 324 323 321 319 319 320 320 320 319 318 316
353 353 352 352 352 353 352 351 351 354 356 356 356 355 353 352 351 348 348 350 348 347 349 351 350 348 346 345 344 343 342 341 339 336 335 333 330 333 336 332 328 326 323 323 327 326 323 324 326 326 326 328 330 332 332 331 329 328 328 327 325 324 324 324 324 323 321 320 319 320 320 320 319 317
352 352 352 352 353 353 352 352 352 353 354 354 354 353 351 350 346 343 344 346 346 345 346 346 345 343 340 338 336 334 332 329 326 325 326 327 329 333 334 329 324 322 318 318 323 324 322 322 321 322 324 324 324 322 322 324 325 324 323 322 321 321 321 322 322 323 323 322 321 320 320 320 320 318
353 353 353 353 353 353 353 352 351 352 353 353 354 352 349 347 344 340 341 343 343 343 342 341 338 334 331 328 327 325 322 318 318 319 322 324 326 330 332 328 324 321 317 313 316 320 321 318 318 320 322 323 321 315 313 318 321 319 318 318 318 318 318 319 320 321 322 323 323 322 320 320 320 319
354 353 352 353 353 353 353 352 351 352 351 350 352 351 348 345 344 342 341 342 341 340 338 334 331 328 326 326 325 322 317 313 314 316 318 319 321 326 329 327 326 325 319 311 310 315 316 314 314 313 315 322 323 313 308 314 318 315 315 315 316 317 318 317 318 319 320 321 323 323 322 320 320 320
353 352 351 351 351 352 352 351 350 351 348 345 346 346 345 345 345 342 340 339 338 337 334 330 328 327 326 326 326 322 316 314 316 318 318 318 319 321 323 323 322 322 318 313 311 313 314 315 315 312 311 317 319 311 306 310 311 310 310 310 312 314 315 316 317 317 318 320 321 323 322 320 319 319
352 351 350 349 349 349 349 347 346 347 347 345 344 343 343 345 345 341 338 336 335 333 331 330 328 326 325 326 325 321 317 318 320 321 320 320 319 319 319 319 319 318 316 315 317 318 318 318 318 316 313 314 314 313 311 310 309 310 310 312 314 315 315 317 318 318 319 320 321 322 321 320 319 319
351 351 349 348 347 346 345 344 343 343 343 342 341 342 344 345 344 341 338 335 331 330 330 331 329 326 325 325 322 319 318 320 322 322 322 322 322 321 320 320 320 320 319 318 319 319 320 319 318 318 317 316 316 316 315 313 311 312 313 316 318 318 317 318 319 319 319 320 320 319 319 319 318 317
350 349 349 348 346 344 342 341 339 339 340 340 340 342 343 342 341 339 337 333 330 329 330 330 329 327 326 324 320 318 319 321 321 321 321 321 321 321 320 319 320 321 322 322 321 319 319 319 318 318 318 318 317 317 316 315 313 313 314 316 318 318 317 316 317 317 317 318 317 317 317 316 315 313
349 348 346 345 343 341 340 337 336 337 340 340 340 340 339 338 338 336 335 332 330 329 328 326 324 323 321 319 317 318 320 320 320 319 317 317 319 320 320 321 321 322 323 323 321 320 320 319 319 318 318 318 317 316 316 315 314 314 315 316 317 317 316 314 314 315 314 315 315 314 314 313 312 312
346 345 342 340 339 338 337 336 335 337 339 338 337 336 334 334 334 333 332 331 329 326 323 321 320 320 320 318 318 321 321 320 320 318 315 316 320 320 319 320 321 322 323 322 320 319 319 319 317 315 315 315 315 315 315 315 315 315 316 316 317 317 315 313 313 313 312 312 311 311 311 311 311 312
341 340 338 337 335 334 333 334 335 336 335 335 334 333 331 331 331 330 329 328 327 325 322 321 322 323 323 322 322 323 322 320 319 318 316 316 319 319 319 318 318 318 319 319 317 317 316 315 314 313 313 314 314 314 315 315 316 316 316 315 315 315 313 311 311 311 310 310 310 309 310 310 310 311
335 334 333 332 331 330 331 333 334 333 332 331 331 330 329 328 328 327 327 327 326 325 323 322 322 322 322 323 324 324 321 319 320 319 317 316 318 318 318 317 316 316 316 316 315 315 313 312 312 312 313 313 313 314 315 315 313 313 313 312 311 310 309 309 309 309 309 309 309 309 309 310 310 309
329 328 328 327 327 328 330 332 331 330 330 330 330 329 327 326 327 326 325 326 326 324 322 323 323 323 323 324 324 323 320 319 319 319 317 317 318 317 317 316 314 314 315 315 314 313 311 310 311 312 313 313 313 313 314 313 310 308 308 308 308 308 308 308 308 308 308 308 308 309 309 308 308 308
327 327 326 326 326 327 329 330 329 328 328 328 329 329 328 325 324 323 323 324 324 323 323 323 323 323 323 323 322 320 319 318 318 318 317 317 317 316 316 314 313 312 313 312 312 311 311 311 312 312 312 313 312 313 313 311 308 307 306 306 306 307 307 307 307 307 307 308 308 308 307 307 306 306
327 329 328 327 327 327 327 328 328 327 327 327 328 329 327 323 321 321 323 324 323 323 323 322 321 320 320 319 318 318 317 317 316 316 316 316 315 315 314 313 312 311 310 310 310 311 311 311 311 311 311 311 311 312 311 309 307 306 306 305 306 306 307 307 307 306 306 306 307 307 307 306 306 306
329 331 330 328 327 326 325 326 326 326 326 326 327 327 325 323 321 322 323 324 323 322 321 320 319 319 318 318 317 317 316 316 315 315 314 314 313 313 312 311 310 309 309 310 309 309 308 308 308 309 309 308 308 309 309 307 306 305 305 305 306 306 306 306 306 305 305 305 306 306 306 306 306 305
331 331 331 330 330 328 325 324 324 324 325 326 327 327 325 323 322 321 322 322 322 321 321 320 319 319 318 317 317 316 316 315 314 313 313 312 311 311 310 309 308 308 309 309 308 306 306 306 306 306 306 305 306 306 306 305 304 304 305 305 305 304 304 304 304 303 304 304 304 305 306 306 305 304
330 329 329 330 331 329 325 323 323 323 324 327 327 326 325 323 322 321 321 322 321 320 320 320 319 319 318 317 316 315 314 313 312 312 311 311 311 310 309 308 308 308 308 307 306 306 305 305 305 305 304 304 305 305 304 303 303 304 304 305 304 303 303 303 303 303 303 303 303 304 304 304 304 303
329 328 328 327 329 329 327 326 325 325 326 328 327 325 324 322 321 321 320 320 320 320 319 319 319 318 316 315 314 313 312 312 312 311 311 310 310 309 308 308 308 307 307 306 305 305 304 304 305 305 304 304 304 304 303 303 303 303 303 303 303 303 303 303 303 303 303 303 303 303 303 303 303 303
328 329 328 326 326 328 330 330 330 329 328 327 325 323 322 321 320 320 320 320 319 319 319 318 317 316 315 314 313 312 312 312 311 310 310 309 308 308 307 307 306 306 305 305 304 304 303 304 305 305 303 302 303 303 302 303 303 303 302 302 303 302 302 302 302 302 302 303 303 302 302 302 302 302
328 329 328 325 324 326 328 330 329 328 326 324 323 322 321 320 320 320 320 319 319 318 318 317 316 315 314 313 313 312 312 311 310 309 309 308 307 307 307 306 305 304 304 304 303 303 302 302 303 302 301 301 301 301 301 302 302 302 301 301 301 301 301 301 301 301 302 303 302 301 301 301 301 301
328 328 326 324 323 323 324 325 325 324 323 322 321 320 320 320 320 320 319 319 318 318 317 316 315 314 314 313 313 312 311 310 309 308 308 307 306 306 305 305 304 304 303 303 303 302 301 301 301 301 301 301 301 301 301 302 302 302 301 301 301 300 300 301 301 301 302 303 302 301 300 300 301 301
327 327 325 324 323 323 322 322 322 322 321 321 320 320 320 320 320 319 318 317 317 316 315 315 315 314 313 313 312 312 310 309 308 308 307 306 306 305 305 304 304 303 302 302 302 301 301 301 301 301 300 300 300 300 301 302 302 302 301 301 301 301 301 301 301 301 302 302 301 301 300 300 301 301
326 325 324 323 323 323 322 321 321 321 320 320 320 319 319 318 317 317 316 315 315 314 314 314 314 313 313 312 311 310 310 308 307 306 306 305 305 304 304 304 303 302 302 302 301 301 301 300 300 300 299 300 300 301 301 301 302 302 302 302 301 301 301 301 301 301 301 301 301 301 301 300 301 301
325 323 322 322 322 321 321 320 320 320 319 319 318 317 317 317 317 316 316 315 315 314 314 314 313 313 312 311 310 309 308 307 306 305 305 305 304 304 303 303 302 301 301 301 301 301 300 300 300 300 300 300 301 301 301 301 302 302 302 302 301 301 301 301 301 301 301 301 301 301 301 300 300 300
325 324 323 322 321 320 320 319 319 318 318 317 317 316 316 316 317 316 316 315 315 314 314 313 312 311 310 310 309 308 307 306 305 305 304 304 303 303 302 302 301 301 301 301 301 301 301 300 300 301 301 301 301 301 301 301 301 301 301 301 301 302 302 302 301 301 301 301 301 301 301 301 300 300
Wind_Speed
6 7 8 8 8 8 7 7 8 8 9 8 7 5 3 3 3 1 2 3 4 5 7 6 4 5 6 7 7 5 4 5 6 6 6 5 5 5 6 8 10 9 8 6 5 5 6 7 7 7 8 8 8 8 9 9 10 10 10 9 9 8 8 7 7 7 6 6 6 5 5 5 5 5
8 8 8 8 8 7 8 8 9 8 8 7 7 6 6 5 5 5 3 3 5 6 8 8 7 8 8 8 9 7 5 7 7 6 7 7 6 6 6 11 12 10 9 7 5 5 5 5 5 7 7 7 7 8 9 10 10 11 10 9 9 8 8 8 8 8 8 9 9 9 9 9 9 8
10 9 8 8 7 7 8 8 9 9 8 8 9 9 9 8 6 7 6 2 5 7 6 7 8 9 8 6 8 8 7 7 8 7 7 6 5 5 6 12 13 12 10 7 5 4 4 4 4 6 7 7 7 8 9 10 11 11 10 8 8 7 7 8 8 9 10 11 12 12 12 12 12 12
9 9 8 8 7 6 6 7 8 9 9 9 11 11 11 9 8 8 7 5 8 11 9 8 9 9 8 6 7 8 8 9 9 8 6 4 3 3 6 11 14 12 10 7 5 3 2 3 3 4 5 5 6 8 10 11 11 10 8 7 7 7 7 8 8 9 10 10 11 11 12 12 12 12
10 10 9 9 8 6 6 7 7 8 9 11 12 12 12 11 10 11 10 10 10 12 12 11 9 8 7 8 9 10 10 9 8 7 6 4 3 3 5 10 12 12 9 7 5 4 2 2 2 3 4 4 5 7 9 10 10 9 8 6 6 6 7 7 8 8 8 9 9 10 10 10 10 11
10 10 10 8 7 7 7 7 7 9 9 9 11 12 14 15 13 13 14 13 12 12 13 13 11 8 7 9 11 11 11 9 8 6 6 6 5 4 4 8 10 9 8 7 5 4 3 3 2 2 3 3 4 7 9 10 10 9 7 6 5 5 6 6 7 7 7 8 8 9 9 9 10 10
12 11 10 8 8 9 9 8 9 11 11 10 10 11 13 16 16 15 16 15 14 14 14 14 12 9 7 9 10 9 9 8 7 6 6 6 6 6 5 6 7 7 7 7 6 5 4 3 2 2 3 2 4 7 9 10 9 8 7 5 4 4 5 5 6 6 7 7 7 8 8 8 9 9
14 13 11 10 9 9 9 9 11 13 13 14 13 12 12 14 16 15 16 16 16 14 14 14 14 10 8 9 10 8 7 7 7 6 5 6 7 7 6 6 7 7 7 7 6 6 6 5 3 2 2 1 3 6 9 10 9 8 8 6 4 4 5 5 6 6 7 7 7 8 8 8 9 9
14 15 14 13 12 10 10 11 13 14 15 15 14 13 11 13 15 16 17 17 17 15 14 14 13 11 9 9 8 7 6 6 6 6 5 6 7 7 7 7 8 9 9 9 8 7 7 6 4 3 1 1 1 5 8 9 8 8 8 6 5 4 5 5 6 6 7 7 7 8 8 8 9 9
15 15 15 14 14 13 14 15 16 17 16 15 14 11 11 13 16 17 17 16 16 15 14 13 12 11 10 9 8 7 6 6 5 4 4 6 7 7 7 6 7 9 10 9 8 8 7 7 6 5 3 2 1 3 7 8 7 8 8 7 5 5 5 5 6 6 7 7 7 8 8 8 9 9
15 14 14 14 14 14 15 15 16 17 17 17 16 13 13 15 18 18 17 16 15 14 13 13 12 11 9 8 7 6 5 6 5 3 3 5 7 7 7 7 7 8 9 10 10 9 9 8 8 7 6 4 3 2 5 6 5 8 9 8 6 6 5 5 6 6 7 7 7 8 8 8 8 8
14 14 14 14 13 14 14 14 14 16 17 17 17 16 15 17 19 19 17 15 14 13 13 13 13 11 9 7 6 5 5 5 3 2 2 3 4 4 5 7 8 8 9 11 11 11 11 11 10 9 8 7 5 3 2 4 4 7 10 9 8 7 6 7 7 7 7 7 7 8 8 8 7 7
13 14 15 14 12 12 12 13 13 14 15 15 16 16 16 17 18 18 15 14 13 13 13 14 13 12 10 7 5 5 5 3 2 1 1 1 1 2 4 6 7 8 10 11 12 12 13 12 12 11 10 9 8 6 3 2 3 6 9 10 9 8 9 9 9 8 7 7 8 8 8 8 8 7
13 14 15 15 14 12 12 11 12 12 12 13 13 13 14 15 16 16 15 14 13 13 14 14 13 13 10 7 5 5 4 3 2 1 2 3 3 4 5 5 5 7 10 12 12 12 12 12 13 13 12 11 10 9 6 2 1 3 7 9 9 10 11 11 11 9 9 9 9 9 9 10 9 8
14 13 13 14 14 13 12 11 12 11 10 9 11 13 14 15 15 16 17 16 15 15 15 14 13 12 10 6 5 6 5 4 4 3 3 4 5 5 5 4 4 6 9 10 10 11 11 11 13 14 14 13 13 11 8 5 3 2 5 7 8 9 11 12 12 11 11 11 11 11 12 13 12 10
14 12 11 12 12 13 12 12 13 12 9 9 13 15 16 15 14 14 15 15 15 15 14 13 11 10 8 6 6 6 6 5 5 4 3 4 4 5 6 6 5 5 8 8 9 9 9 9 12 13 13 14 14 12 10 7 5 2 2 5 7 8 9 10 11 11 12 12 12 12 14 15 15 13
15 13 12 12 11 12 11 11 12 12 12 12 14 15 15 14 12 12 14 14 14 13 12 11 10 8 7 7 7 6 6 5 5 5 5 5 6 7 8 8 6 6 8 8 7 3 6 7 10 12 12 13 13 12 12 10 7 4 2 2 4 5 6 7 8 8 9 10 11 11 12 15 16 15
14 13 12 12 11 10 11 12 12 13 13 14 15 15 14 13 11 12 14 14 13 12 11 10 9 8 7 6 6 6 6 6 6 7 8 8 8 8 7 5 4 4 6 6 5 2 5 7 5 7 8 8 8 8 11 11 9 6 4 2 2 3 4 5 5 4 4 5 7 8 9 12 14 14
13 12 11 11 10 9 10 13 14 14 14 15 15 15 14 12 11 12 13 12 10 8 8 8 8 7 5 4 5 5 6 7 8 9 9 7 6 6 3 4 4 1 1 2 2 1 4 6 4 3 3 3 4 4 8 11 11 9 7 5 4 5 7 8 7 6 4 2 3 4 5 8 10 11
12 12 11 12 11 11 10 12 15 16 17 16 15 15 14 13 11 10 9 9 8 5 5 5 5 4 3 3 4 5 6 7 8 8 7 6 5 4 5 6 3 2 4 2 3 5 6 7 6 5 5 4 3 2 4 8 10 8 7 7 8 10 11 12 12 11 9 7 4 3 3 4 7 7
12 11 10 10 11 10 10 12 15 16 18 18 16 15 15 14 11 8 7 8 7 5 5 5 4 4 3 2 2 3 5 5 6 5 3 3 4 4 6 5 4 5 7 6 4 6 7 8 7 5 6 8 8 7 5 2 2 1 3 4 6 8 8 10 11 12 13 12 10 8 5 3 4 5
11 11 10 9 8 8 9 10 13 14 17 18 18 16 15 13 11 10 9 9 7 7 7 6 6 6 5 3 2 2 4 4 3 2 2 1 1 2 5 6 5 6 8 9 5 5 6 8 8 6 7 8 9 11 10 8 7 6 5 4 5 6 6 6 7 7 9 11 11 11 9 6 4 4
12 11 11 9 8 8 8 8 10 13 14 15 16 15 13 13 14 14 11 8 9 10 10 10 9 9 7 6 6 8 9 8 7 7 7 5 3 4 5 5 5 4 7 10 8 5 7 9 10 8 4 3 2 6 9 6 4 5 5 4 4 5 5 5 6 7 6 6 8 9 10 7 5 6
13 11 10 9 8 8 8 8 9 11 12 12 13 14 14 16 17 15 11 9 9 10 10 11 11 10 9 7 8 10 11 11 12 12 13 11 9 9 8 7 6 5 6 10 10 7 9 11 12 12 8 4 2 7 10 8 8 10 10 8 8 7 7 7 7 6 5 4 4 3 5 6 6 6
11 10 9 8 8 8 9 9 9 11 11 11 12 12 12 15 16 13 11 9 8 8 8 9 11 11 9 8 8 9 10 10 11 12 13 13 12 12 11 11 11 8 7 9 11 10 11 12 14 15 12 8 7 12 13 11 13 16 14 12 12 11 9 8 7 5 4 3 3 3 1 2 3 5
12 10 9 8 8 9 9 9 9 9 9 9 8 8 8 9 11 12 12 9 9 8 6 8 11 11 9 8 8 9 10 10 9 10 10 10 10 11 11 11 10 9 8 9 9 11 11 11 13 15 13 10 9 13 14 13 15 17 14 14 16 13 11 10 8 7 8 7 7 7 5 3 4 7
12 10 9 9 9 9 8 7 5 5 5 4 3 3 2 4 6 11 13 12 10 8 7 9 11 10 7 7 8 9 10 10 11 10 9 7 7 7 8 8 7 6 7 7 7 10 11 10 10 12 12 10 10 13 13 12 15 17 15 15 16 12 10 12 12 11 10 10 9 8 7 8 10 12
10 9 9 9 8 8 6 4 2 1 3 3 7 9 9 11 13 15 16 14 12 10 9 10 10 9 7 8 10 11 11 11 11 11 10 7 7 9 10 10 8 7 6 5 7 10 10 9 10 11 11 10 10 11 12 12 16 18 18 17 15 11 10 13 14 13 13 13 12 12 12 12 13 12
8 7 7 6 5 4 1 1 5 8 8 7 10 12 14 14 15 15 14 12 11 10 10 10 10 10 9 10 11 11 10 10 12 13 12 10 10 12 13 13 13 13 10 7 7 8 8 8 9 10 10 10 10 11 12 14 17 18 18 18 14 8 9 14 15 15 16 15 15 14 13 11 11 10
4 4 3 3 2 2 5 7 10 12 12 11 11 12 13 14 14 14 13 11 11 10 10 10 10 9 9 9 9 7 8 11 12 13 13 11 10 11 12 14 16 15 12 9 8 9 9 9 10 10 10 10 10 12 13 13 14 15 15 14 11 8 10 15 16 16 16 15 14 13 11 10 10 11
3 3 3 3 5 7 9 10 12 14 13 11 11 12 12 12 11 11 9 9 10 11 11 10 8 6 6 6 6 6 8 9 10 11 13 12 11 10 10 12 13 12 10 8 9 10 12 12 11 10 11 10 11 11 10 10 13 14 13 13 13 12 14 17 17 16 15 14 13 13 11 11 12 13
4 5 5 5 7 8 9 11 13 13 11 10 10 11 10 10 10 9 9 10 10 10 9 7 6 5 5 6 6 6 8 8 8 9 11 11 11 9 9 11 12 12 11 11 12 14 14 12 10 9 10 10 10 10 8 10 14 17 17 17 16 15 14 16 17 16 15 13 12 13 13 13 14 15
6 6 5 4 5 6 7 9 10 9 8 8 9 10 10 11 11 12 13 13 12 10 9 9 9 10 11 11 9 8 8 9 8 8 9 9 9 9 9 11 13 13 15 16 17 16 14 11 9 9 9 9 8 8 9 13 17 20 21 20 19 17 16 17 17 16 15 15 15 14 15 15 15 16
6 6 5 4 4 4 5 7 8 6 5 7 7 9 11 12 12 12 13 13 12 12 12 13 13 13 13 13 11 9 9 9 8 8 9 9 9 9 10 11 12 14 15 16 16 15 14 12 11 9 7 7 7 7 10 15 19 22 22 20 19 20 20 18 17 17 17 17 18 18 18 18 17 17
7 7 6 4 3 2 4 6 6 5 4 4 4 7 11 12 12 12 12 12 11 12 13 13 12 11 11 10 9 8 8 8 8 8 8 9 9 10 10 12 13 14 15 14 14 14 14 15 15 13 13 13 13 11 12 16 20 22 21 19 20 22 21 19 18 19 18 18 19 20 21 21 20 19
8 9 8 5 3 1 3 6 6 6 5 2 1 5 11 13 12 12 12 11 11 11 12 11 9 8 8 7 6 6 6 6 6 7 8 9 9 9 10 11 12 12 12 13 14 14 15 17 18 18 17 16 13 10 13 18 19 18 18 19 20 21 22 20 20 20 20 20 20 20 20 21 22 22
8 10 9 6 3 2 5 7 7 8 7 6 6 8 13 15 14 13 13 12 10 10 9 9 8 7 6 5 5 5 5 5 5 6 7 8 8 9 10 11 10 10 10 11 12 14 16 16 17 17 15 11 6 4 11 19 18 15 16 19 21 21 22 22 22 23 22 21 21 21 22 23 24 23
8 9 9 6 3 6 9 10 10 11 11 10 9 14 18 17 15 14 13 12 11 10 9 8 7 6 5 4 4 4 4 4 5 5 6 7 7 8 9 9 8 8 8 10 12 14 15 15 14 14 13 9 5 4 9 16 18 16 16 19 21 22 22 23 23 23 22 22 22 22 21 20 20 19
7 8 8 7 4 4 8 11 12 12 11 11 16 21 20 17 15 14 12 11 11 10 9 7 7 6 5 4 4 3 4 4 5 5 5 6 7 7 7 6 7 7 8 9 11 13 14 15 14 14 14 12 10 10 12 15 16 17 16 17 19 21 23 23 23 23 23 24 22 20 19 19 19 19
6 5 4 4 5 3 2 6 9 11 13 17 20 20 18 16 15 14 12 11 10 9 8 6 6 5 4 4 4 4 4 4 4 4 5 5 6 5 5 5 7 7 8 10 12 13 14 15 14 14 14 13 14 15 15 15 16 18 19 18 17 19 21 21 21 22 23 20 18 19 21 22 21 21
5 3 4 6 6 6 7 9 12 15 17 19 18 17 15 15 14 12 11 10 9 7 7 6 5 4 4 4 3 3 3 4 3 3 4 5 4 4 4 6 7 7 8 10 11 12 13 12 12 13 14 15 17 17 15 14 15 18 21 21 18 18 19 18 17 19 18 16 16 19 20 21 19 19
3 3 5 6 7 7 8 10 13 14 15 15 15 14 13 13 11 10 9 8 7 7 6 7 6 5 5 5 4 3 3 3 2 2 3 3 3 3 5 5 5 5 7 8 8 9 9 10 13 15 16 17 17 16 13 12 14 17 20 22 21 20 20 18 17 16 15 15 17 18 19 19 17 14
4 5 7 7 7 8 9 10 12 13 13 13 12 11 11 10 9 8 8 8 7 7 7 8 8 6 6 5 4 3 2 2 1 2 2 2 2 4 4 4 4 4 5 5 6 7 10 13 15 16 16 16 16 15 14 14 16 17 20 21 22 23 23 21 19 17 15 16 18 19 19 19 16 13
6 8 9 9 10 10 11 11 12 12 12 12 10 9 8 8 7 7 7 7 7 8 8 8 8 6 6 5 4 2 1 1 2 2 1 1 2 3 3 2 3 3 4 6 7 10 12 13 14 15 15 16 17 16 15 16 16 18 20 22 23 24 24 24 22 20 19 20 22 22 22 22 20 18
6 8 9 9 10 11 11 12 12 13 12 11 10 9 8 8 7 8 7 7 8 8 8 7 7 6 5 4 2 1 2 2 2 1 1 2 2 3 3 3 3 5 6 8 9 10 11 13 14 14 15 18 18 16 16 17 17 18 20 22 23 24 24 24 22 21 20 23 26 26 25 24 24 24
Wind_Direction
266 278 292 296 283 273 271 263 262 277 289 280 261 258 236 181 175 209 308 289 270 300 313 309 318 330 329 325 320 312 317 323 304 280 280 291 293 283 261 254 258 264 268 278 303 324 340 347 348 351 353 355 359 2 3 0 359 359 359 2 7 13 20 26 35 39 45 51 54 60 61 59 59 56
262 271 289 301 288 272 268 261 257 269 287 280 263 274 280 258 218 190 193 269 263 276 299 295 297 315 324 321 310 298 297 311 312 305 303 301 295 293 267 250 253 260 260 264 284 310 336 348 350 353 354 358 3 2 0 358 356 357 357 2 7 15 24 32 40 45 51 57 57 57 57 58 59 59
260 267 287 300 290 277 272 264 261 268 273 272 273 278 275 271 254 213 191 219 273 276 286 286 290 302 309 306 298 294 293 303 312 311 306 301 293 290 261 242 244 253 254 251 265 295 330 349 350 356 356 358 2 0 355 354 354 354 356 3 10 18 30 38 46 52 58 60 57 55 55 56 57 57
260 266 282 298 294 282 271 263 264 269 268 269 277 274 262 264 267 244 216 215 264 281 285 281 287 293 287 282 289 294 296 300 302 294 288 292 296 286 256 241 242 249 249 242 252 281 320 345 346 359 1 1 4 2 357 354 355 356 358 6 17 28 39 48 53 58 60 57 53 50 50 51 52 54
257 262 273 291 293 275 269 266 262 269 273 277 283 273 254 252 258 250 231 221 249 278 279 269 275 278 270 277 286 287 290 291 283 269 261 263 266 264 256 250 247 248 247 240 247 267 293 326 338 1 9 12 15 9 3 358 357 358 0 11 24 35 45 52 55 55 53 49 46 44 46 48 50 53
251 255 264 283 285 262 258 256 247 251 255 262 277 275 260 257 257 249 238 227 236 264 271 265 264 260 257 274 283 282 286 288 279 266 257 248 239 235 257 259 251 247 245 241 249 262 279 308 323 357 16 28 28 18 10 3 359 358 360 10 26 35 42 47 46 45 43 41 42 43 45 47 49 51
248 251 257 271 276 260 247 238 231 230 225 228 246 257 258 261 260 250 241 234 236 254 266 264 260 257 260 274 279 281 289 293 286 275 261 244 233 233 252 259 247 242 239 240 250 260 273 288 294 339 17 38 31 20 12 3 0 359 359 7 22 28 32 32 33 34 34 35 37 40 42 43 44 47
248 248 250 256 265 266 251 234 224 220 223 233 236 232 238 252 258 251 241 239 243 250 255 254 254 258 266 273 277 283 290 291 284 274 256 240 235 240 253 254 247 246 243 241 248 256 266 273 270 301 1 35 29 22 13 3 3 4 1 4 15 21 22 22 24 26 27 30 32 34 37 39 42 46
246 248 252 249 244 246 245 236 229 231 236 237 233 229 229 238 247 246 239 238 242 246 247 244 243 246 254 264 273 279 288 290 283 270 249 238 237 243 254 252 247 250 247 244 251 257 260 263 259 265 295 328 13 18 11 6 12 15 8 8 15 19 20 19 21 24 26 28 30 33 37 40 43 48
250 252 258 255 243 237 241 243 244 248 250 246 242 238 228 226 232 235 234 235 240 245 247 245 242 243 249 259 266 270 284 295 290 273 249 238 234 235 241 244 246 251 251 249 253 257 260 263 260 256 262 269 287 9 10 10 25 28 19 17 21 20 20 21 22 26 27 28 30 33 38 43 47 50
253 251 254 256 251 247 249 250 249 248 246 246 246 241 230 227 229 231 232 235 240 243 241 240 242 244 246 252 255 261 284 296 296 285 246 225 224 230 237 243 245 246 247 248 249 252 256 258 257 252 254 260 256 310 3 13 32 36 30 28 27 21 19 19 19 23 25 27 29 31 34 41 47 53
252 252 255 255 254 255 256 257 255 249 244 239 236 232 230 229 230 232 233 234 237 239 237 236 238 239 240 243 246 254 271 281 285 277 224 205 213 233 243 245 246 243 243 245 247 253 259 258 256 254 253 256 251 251 332 9 33 40 37 35 32 27 23 20 16 16 20 23 26 28 30 36 42 52
253 258 263 261 257 257 256 257 259 257 251 243 236 231 228 228 232 236 235 233 233 232 232 235 234 234 237 238 241 247 252 267 290 280 241 253 268 272 265 257 254 248 244 245 248 254 260 260 258 256 255 255 251 242 260 340 25 44 42 40 40 38 32 25 18 15 18 22 23 24 26 30 34 41
255 262 266 264 259 257 255 254 259 260 255 248 243 240 237 236 242 246 242 237 232 227 229 234 234 233 236 235 236 240 240 255 283 284 275 292 303 303 296 284 268 254 247 250 254 260 264 261 258 258 256 255 250 239 238 270 341 46 48 47 51 48 39 33 30 28 30 30 26 25 26 28 29 30
256 264 267 264 257 250 247 247 248 251 254 246 236 234 236 237 242 249 250 245 236 228 230 235 235 235 240 239 229 233 238 240 253 270 280 288 297 302 298 295 292 267 252 253 266 278 279 269 263 263 260 257 254 243 234 249 282 17 51 53 58 54 44 40 37 36 36 35 33 33 31 28 25 24
258 264 268 268 259 251 248 245 241 240 241 237 232 232 233 233 235 243 250 251 246 238 236 237 237 238 241 235 228 236 243 241 248 261 271 283 293 298 294 292 287 262 250 254 267 286 304 291 273 272 269 261 257 247 235 241 263 296 34 54 59 55 46 41 39 37 36 35 35 35 31 26 23 21
255 260 265 267 264 256 246 234 231 231 228 228 232 236 236 233 231 233 239 246 248 246 243 241 241 242 237 232 238 249 251 252 258 261 275 292 291 291 293 290 275 252 253 257 247 267 352 329 282 276 277 270 262 248 236 240 258 274 310 37 48 44 37 35 36 38 36 33 33 32 28 25 23 21
252 258 262 262 260 254 242 231 231 234 232 230 232 235 234 230 227 230 234 239 243 243 245 242 239 238 234 234 246 255 260 268 270 270 281 290 289 293 292 273 248 241 253 257 233 237 355 347 297 281 286 284 276 251 235 240 255 267 275 308 357 0 358 358 4 18 29 32 32 28 26 24 23 22
253 258 259 256 253 249 243 237 237 238 236 232 233 239 238 228 224 231 233 233 237 242 241 236 230 225 225 233 244 254 265 272 274 278 281 277 280 289 254 200 194 203 276 276 216 154 19 27 52 39 11 0 337 288 247 243 250 261 272 285 307 316 319 320 319 319 320 329 0 16 24 25 23 21
255 259 257 254 253 253 248 235 230 234 237 235 237 242 239 228 229 241 236 225 227 232 220 212 211 209 218 237 249 264 272 274 279 280 269 259 269 256 189 171 158 74 41 32 137 120 60 44 58 62 54 49 29 320 260 252 252 265 286 303 316 316 313 308 303 301 299 294 294 306 337 13 20 19
256 256 254 254 254 255 248 232 226 232 239 245 247 244 240 237 238 242 228 211 209 207 195 189 188 187 195 218 246 277 287 293 296 284 253 254 268 228 176 157 122 80 56 52 104 107 56 30 31 62 93 98 90 80 69 82 126 58 0 355 352 342 329 315 302 295 291 288 285 283 282 309 358 8
248 247 246 249 251 252 246 236 233 236 242 248 249 244 243 242 229 212 204 197 190 185 179 169 159 148 134 125 104 36 4 353 343 352 52 53 256 171 158 156 137 95 56 46 62 81 51 23 16 50 111 121 92 63 56 75 92 78 55 43 30 17 6 354 336 318 302 289 279 275 272 275 307 333
238 239 241 244 248 251 250 242 234 236 243 246 244 237 233 231 222 210 204 198 190 185 172 154 143 127 110 97 75 57 47 46 50 54 56 53 61 90 118 144 144 105 43 34 41 68 61 39 27 34 63 134 95 37 40 58 60 29 11 356 0 2 355 350 347 345 336 312 286 272 263 262 280 307
239 239 242 246 247 246 248 243 234 235 243 245 240 231 220 219 218 210 204 208 201 184 162 143 132 118 106 92 69 60 60 62 65 63 57 52 58 75 87 89 86 79 48 37 41 61 66 50 38 34 36 46 6 0 13 26 20 7 358 352 352 341 328 330 337 342 343 333 319 280 246 249 272 302
243 246 251 254 250 241 236 235 232 233 238 241 244 242 230 225 225 215 207 205 184 157 144 138 132 125 115 99 77 68 67 68 69 64 55 51 57 66 70 67 64 64 62 54 47 49 54 47 34 30 34 42 21 1 3 11 12 11 13 16 14 4 354 355 0 7 20 27 42 70 120 235 285 316
242 251 257 258 258 248 238 238 240 245 251 251 252 258 248 234 231 224 210 185 151 143 156 153 142 135 120 96 78 76 75 71 66 59 53 54 60 61 57 54 56 60 65 65 52 40 42 41 32 28 29 29 14 3 2 2 4 11 24 32 28 26 31 36 41 48 52 56 61 65 68 45 354 340
244 249 248 248 253 249 247 260 272 269 267 248 200 193 165 137 170 190 184 164 148 148 148 137 131 124 109 86 78 81 79 70 61 54 49 49 57 59 49 39 43 58 62 60 47 35 34 37 36 31 27 22 10 3 358 352 355 4 16 24 27 33 37 35 37 40 37 35 33 26 10 353 342 337
242 244 241 242 248 251 261 302 4 140 188 152 126 120 117 123 142 159 161 155 150 138 120 111 107 99 91 90 90 87 81 70 59 47 39 43 62 71 65 56 55 66 69 57 41 33 30 35 36 28 21 16 8 357 348 342 348 355 358 3 13 29 28 17 16 17 12 8 4 357 350 346 342 338
238 243 243 243 253 262 266 94 120 142 151 141 125 118 118 125 135 143 145 145 139 121 102 95 95 91 88 93 96 92 79 65 55 45 44 62 82 80 72 68 68 74 82 79 54 42 40 37 30 19 10 8 3 353 345 341 345 351 354 356 2 17 16 6 3 2 359 359 360 358 356 353 350 351
219 223 227 228 205 140 132 134 137 139 139 135 127 119 117 120 123 126 129 132 127 114 102 98 98 94 91 96 103 97 71 57 54 50 48 60 75 69 61 63 66 70 77 73 57 49 41 23 10 4 1 2 2 358 354 353 355 1 9 12 11 6 357 355 355 354 354 356 356 356 356 356 357 2
149 152 152 155 146 139 142 141 135 130 129 128 123 117 114 114 114 114 122 128 125 115 107 106 106 102 105 117 119 95 65 55 57 53 45 46 54 48 42 51 56 55 57 52 36 23 11 360 356 358 358 0 5 6 9 22 25 21 20 17 9 357 351 351 350 351 352 350 348 349 352 354 355 356
115 117 123 135 142 142 144 143 137 131 129 128 129 129 123 116 114 116 121 127 128 123 117 116 117 115 123 135 129 96 70 63 61 51 43 44 45 33 27 38 42 31 19 13 4 359 356 355 356 357 355 359 8 10 17 32 29 18 9 3 357 353 353 354 353 352 351 347 345 346 348 348 346 344
100 96 96 113 136 145 151 152 150 143 129 123 134 143 139 130 127 127 125 126 132 135 131 126 124 121 118 120 119 105 89 79 65 50 47 49 44 35 34 42 38 23 10 3 358 353 353 358 4 8 9 16 19 15 14 18 13 5 1 358 354 352 354 356 356 357 356 351 346 342 340 341 343 340
89 79 71 85 113 132 151 162 166 158 129 114 129 145 146 143 140 136 132 132 135 136 132 128 126 124 118 115 113 105 94 80 63 49 47 46 41 39 39 38 31 20 11 8 6 4 3 6 9 12 17 22 17 9 11 11 4 356 354 355 352 351 353 355 357 358 356 350 343 336 332 333 335 334
76 59 54 70 95 126 163 173 179 181 157 124 132 154 158 154 148 141 138 138 139 139 136 132 127 121 115 110 103 92 81 70 57 49 44 41 40 41 38 31 24 17 15 21 28 27 22 17 14 12 10 7 3 356 355 359 357 351 348 350 353 354 355 356 357 354 352 349 344 337 332 330 332 333
64 46 44 45 24 318 228 212 210 205 198 196 216 189 175 164 152 143 143 146 148 146 141 136 129 121 111 105 95 81 68 56 50 49 45 41 40 37 32 27 22 18 26 39 41 32 24 19 18 18 15 9 3 351 342 349 357 355 347 349 356 358 356 355 354 352 351 349 344 338 332 327 330 335
49 38 35 27 357 288 250 239 226 219 231 258 257 209 181 166 154 150 154 159 159 154 148 142 137 127 114 105 93 77 63 53 52 52 46 37 31 28 25 26 27 29 40 47 38 27 22 20 19 21 19 11 3 338 334 344 357 6 358 353 353 353 352 350 349 348 350 350 346 342 336 330 331 339
43 36 29 12 316 247 239 237 231 234 250 253 215 182 170 163 159 160 164 166 163 157 153 147 138 128 120 107 84 68 69 73 70 62 48 35 28 26 25 29 34 37 37 34 26 21 21 20 17 17 14 4 345 326 329 336 347 0 3 357 355 355 356 355 351 349 351 351 349 349 348 344 346 356
35 28 23 14 347 267 238 233 233 236 234 206 177 168 165 163 164 165 165 162 158 153 149 143 136 131 125 107 89 92 104 94 75 61 49 35 26 24 29 38 42 37 28 22 18 15 16 20 19 15 13 9 0 351 342 337 341 351 357 357 358 1 1 358 354 351 349 349 353 359 3 360 358 358
19 19 39 61 55 59 167 196 202 197 181 169 167 167 167 167 168 169 167 163 156 151 147 143 141 137 122 105 109 124 113 88 72 61 46 31 23 26 36 38 35 32 26 22 21 23 27 31 29 20 15 10 358 346 341 339 343 349 350 348 350 352 352 352 352 350 349 353 1 5 3 358 354 351
20 49 120 123 107 104 125 148 160 163 163 164 167 168 169 170 171 169 166 162 157 154 152 151 151 145 132 130 146 146 114 97 91 65 34 26 32 39 32 22 20 24 25 25 31 38 38 31 18 5 358 352 346 343 343 342 340 341 344 345 345 346 346 347 348 348 349 356 0 358 355 353 349 347
42 117 145 144 138 137 142 151 159 163 164 166 167 166 165 167 167 164 161 160 158 157 157 156 156 154 153 160 172 158 126 116 101 49 24 29 41 25 12 12 22 32 37 41 45 42 27 7 357 353 351 351 352 352 347 337 331 330 334 338 340 343 346 346 347 348 348 347 348 350 351 347 341 340
120 132 141 147 149 149 148 150 155 158 159 157 156 156 157 158 160 160 158 155 152 152 156 161 164 167 166 164 160 145 132 124 89 58 48 42 25 8 5 27 53 52 47 49 39 19 7 1 358 356 354 355 355 350 337 328 327 327 328 329 332 337 342 346 349 350 345 338 337 341 344 340 334 327
133 128 128 134 138 139 139 139 141 144 147 145 144 147 151 153 154 153 150 148 151 156 163 167 170 170 169 166 165 166 147 109 85 73 59 35 19 13 19 52 66 47 37 32 19 9 6 4 1 357 353 351 349 343 334 328 326 325 326 327 328 331 336 340 342 343 339 335 335 338 339 340 336 329
145 142 140 142 144 145 144 144 144 144 144 143 145 149 155 161 165 163 157 155 158 162 164 167 166 166 167 167 164 132 110 103 105 114 101 83 61 47 53 72 64 48 41 30 17 10 5 1 358 354 348 345 344 341 334 329 326 326 327 327 327 329 332 333 334 334 332 331 334 336 337 337 336 335